Temp
20 19 19 19 20 20 20 20 20 20 20 19 19 19 19 18 18 18 19 19 19 19 19 19 19 19 19 19 20 19 20 20 19 19 19 20 20 20 20 20 20 21
19 19 19 19 19 20 20 20 20 20 19 19 19 19 19 18 18 18 18 18 18 18 19 19 19 19 19 20 20 20 20 20 20 19 19 19 20 20 20 20 20 21
19 19 19 19 19 19 20 20 20 20 19 19 19 19 19 19 19 19 18 18 18 18 18 19 19 19 19 20 20 20 20 20 20 20 19 19 19 19 20 20 21 21
19 19 19 19 19 19 19 19 19 20 19 19 19 19 19 19 18 19 19 18 18 18 18 18 19 19 19 19 20 20 20 20 20 20 20 19 19 19 20 20 21 21
19 19 19 19 19 19 19 19 19 19 19 19 19 19 19 18 18 19 19 19 18 18 18 19 19 19 19 19 20 20 20 20 20 20 20 19 19 19 20 20 20 21
19 19 19 19 19 19 19 19 19 19 19 19 19 19 18 18 18 18 18 19 18 18 18 19 19 19 19 19 20 20 20 20 20 20 19 19 19 19 20 20 20 21
19 19 19 19 19 19 19 19 18 18 19 19 19 19 18 18 18 18 18 18 18 18 18 19 19 19 19 19 19 20 20 20 20 19 19 19 19 19 19 20 20 21
19 19 19 19 19 19 19 18 18 18 18 18 19 19 19 19 18 18 18 18 18 18 18 18 19 19 19 19 19 19 19 20 20 19 19 19 19 19 19 20 20 21
19 19 19 19 19 19 19 18 18 18 18 18 19 19 19 19 19 19 18 18 18 18 18 18 18 19 19 19 19 19 20 20 20 20 19 19 19 19 19 20 20 20
19 19 19 19 19 19 19 18 18 18 18 18 18 19 19 19 19 19 19 19 19 19 18 18 18 19 19 19 19 19 20 20 20 20 20 19 19 19 19 19 20 20
19 19 19 19 19 19 19 19 18 18 18 18 18 19 19 19 19 19 19 19 20 20 18 18 18 19 19 19 19 20 20 20 20 20 20 20 19 19 19 19 19 20
20 20 19 19 19 19 19 19 19 18 18 18 18 19 19 19 19 19 19 19 19 19 18 18 18 19 19 19 19 19 19 20 20 20 20 20 19 19 19 19 19 20
19 20 19 19 19 19 19 19 19 19 19 18 18 18 19 19 19 19 19 19 19 18 18 19 19 19 19 19 19 19 19 19 19 19 20 20 20 20 19 19 19 19
19 19 19 19 19 19 19 19 19 19 19 19 19 19 19 19 19 19 19 18 18 18 18 19 19 19 19 19 19 19 19 19 19 19 20 20 20 20 20 19 18 19
19 20 20 20 20 20 20 20 20 19 20 20 20 20 19 19 18 19 19 19 18 18 18 18 19 19 19 19 19 19 19 19 19 19 20 20 21 21 21 20 19 18
19 20 20 20 20 20 20 20 20 19 19 20 20 20 19 19 18 18 19 19 19 18 18 18 18 19 19 19 19 19 19 19 19 19 19 20 20 20 21 21 20 19
20 20 20 20 19 19 19 19 20 20 19 19 19 19 19 19 19 19 18 18 18 18 18 18 18 19 19 19 19 19 19 19 19 19 19 19 19 20 20 20 20 20
20 20 20 20 19 19 19 19 19 20 20 19 19 19 19 20 20 20 19 18 19 19 19 19 18 19 19 19 19 19 19 19 19 19 19 19 19 19 20 20 20 20
19 20 20 20 20 19 19 19 19 20 20 20 19 19 19 20 20 20 19 19 18 19 20 19 19 18 19 18 18 18 19 19 19 19 19 19 19 19 19 20 20 20
19 19 19 20 20 19 19 19 20 20 19 19 19 19 19 19 19 19 19 19 18 18 18 18 18 18 18 18 18 18 18 18 18 18 18 18 19 19 19 20 20 20
19 19 19 19 20 19 19 19 19 19 19 19 19 19 19 19 19 19 19 19 19 18 18 18 18 18 18 18 18 18 18 18 18 18 18 18 18 19 19 19 19 19
19 19 19 19 19 19 19 19 19 19 19 19 19 19 19 19 19 18 18 18 18 17 17 18 18 18 18 18 18 18 18 18 18 18 18 18 18 19 19 19 18 19
18 18 18 19 19 19 19 19 19 19 19 19 19 18 18 18 18 18 17 17 18 18 18 19 19 19 19 19 19 19 18 18 18 17 18 18 19 19 19 18 18 18
17 17 18 18 18 18 19 19 19 18 18 19 18 18 18 18 17 17 18 18 18 19 20 21 21 20 20 19 19 19 18 18 18 18 18 18 18 18 18 18 18 18
16 17 17 18 17 17 18 18 18 18 18 18 18 18 18 17 17 18 19 19 19 19 20 20 20 20 19 19 19 18 18 19 19 18 18 18 17 17 17 17 18 18
16 16 17 17 17 17 17 17 17 18 18 18 18 17 17 17 18 19 19 19 19 19 20 20 20 20 19 19 18 18 18 18 18 18 18 18 18 18 17 17 17 18
Height
1519 1519 1519 1519 1519 1519 1519 1519 1520 1520 1521 1521 1522 1522 1523 1524 1525 1525 1525 1525 1525 1525 1526 1528 1530 1532 1533 1534 1535 1537 1539 1540 1541 1545 1549 1550 1552 1553 1554 1555 1556 1556
1517 1518 1519 1519 1518 1519 1519 1520 1520 1520 1521 1521 1521 1522 1522 1523 1524 1524 1524 1524 1524 1524 1525 1526 1527 1529 1531 1532 1533 1534 1537 1538 1539 1543 1547 1549 1550 1551 1552 1553 1554 1555
1516 1517 1518 1518 1518 1518 1519 1519 1520 1520 1520 1521 1521 1522 1522 1522 1523 1523 1523 1523 1523 1523 1524 1524 1525 1527 1528 1529 1530 1532 1535 1537 1537 1540 1544 1547 1549 1550 1551 1552 1553 1554
1516 1517 1517 1517 1517 1518 1518 1519 1519 1519 1520 1520 1521 1521 1522 1522 1522 1522 1522 1522 1522 1522 1522 1522 1523 1525 1526 1528 1529 1531 1533 1535 1536 1538 1541 1545 1547 1548 1549 1550 1551 1552
1516 1516 1516 1517 1517 1517 1518 1518 1518 1519 1519 1519 1520 1520 1521 1521 1521 1521 1521 1521 1521 1521 1521 1521 1522 1523 1525 1526 1528 1530 1532 1534 1535 1536 1539 1542 1545 1546 1547 1548 1549 1550
1516 1516 1516 1517 1516 1517 1517 1517 1518 1518 1518 1519 1519 1519 1519 1519 1519 1520 1520 1520 1520 1520 1520 1521 1521 1522 1524 1525 1526 1528 1529 1531 1533 1535 1537 1540 1542 1543 1544 1545 1546 1547
1515 1515 1516 1516 1516 1516 1516 1516 1517 1517 1518 1518 1518 1518 1517 1517 1518 1518 1518 1519 1519 1520 1520 1520 1520 1521 1523 1524 1525 1526 1528 1530 1532 1533 1535 1537 1540 1541 1542 1543 1544 1544
1514 1514 1515 1515 1515 1516 1516 1516 1517 1516 1517 1517 1517 1516 1516 1516 1516 1516 1517 1518 1518 1519 1519 1519 1519 1520 1521 1522 1523 1524 1526 1528 1529 1530 1531 1534 1536 1538 1539 1540 1542 1542
1515 1515 1515 1515 1515 1515 1516 1516 1516 1516 1516 1516 1516 1515 1514 1514 1514 1515 1516 1516 1516 1518 1518 1518 1518 1519 1520 1521 1521 1522 1523 1524 1525 1526 1528 1530 1532 1535 1536 1538 1539 1540
1516 1516 1515 1515 1515 1515 1515 1515 1515 1515 1515 1515 1515 1514 1513 1513 1513 1513 1514 1514 1514 1515 1517 1517 1516 1517 1518 1519 1519 1520 1520 1521 1523 1524 1526 1527 1529 1531 1534 1535 1537 1537
1515 1515 1514 1514 1514 1514 1514 1514 1514 1514 1515 1514 1514 1513 1513 1513 1512 1512 1512 1512 1512 1514 1515 1516 1515 1515 1516 1517 1518 1518 1519 1520 1521 1523 1525 1526 1527 1529 1531 1533 1534 1535
1514 1514 1513 1513 1513 1512 1512 1512 1512 1512 1513 1514 1514 1512 1512 1514 1513 1511 1511 1511 1511 1512 1513 1514 1514 1515 1515 1516 1516 1516 1517 1518 1519 1521 1522 1524 1525 1526 1528 1530 1532 1532
1512 1512 1511 1511 1512 1511 1510 1510 1510 1510 1510 1511 1512 1511 1512 1514 1513 1511 1511 1511 1511 1511 1511 1512 1513 1513 1514 1515 1515 1515 1516 1517 1518 1519 1520 1521 1522 1523 1525 1527 1528 1529
1511 1510 1510 1510 1510 1509 1509 1508 1508 1508 1507 1506 1506 1507 1508 1511 1511 1511 1510 1510 1510 1509 1510 1510 1511 1512 1512 1513 1514 1514 1515 1516 1516 1517 1518 1519 1520 1520 1522 1525 1525 1526
1509 1509 1508 1508 1508 1507 1506 1505 1505 1505 1504 1504 1503 1503 1504 1506 1508 1509 1509 1509 1509 1508 1509 1509 1509 1509 1510 1512 1513 1513 1514 1515 1515 1516 1516 1517 1518 1518 1520 1523 1524 1524
1508 1507 1506 1506 1506 1505 1504 1503 1503 1502 1501 1501 1501 1501 1501 1503 1506 1508 1508 1508 1508 1508 1509 1509 1508 1508 1509 1510 1512 1513 1513 1514 1514 1515 1515 1515 1516 1516 1517 1519 1522 1523
1506 1505 1504 1504 1503 1503 1502 1501 1501 1501 1500 1499 1499 1498 1499 1499 1502 1505 1507 1508 1509 1509 1509 1509 1508 1508 1508 1509 1511 1512 1512 1513 1513 1514 1514 1514 1515 1514 1515 1516 1518 1521
1505 1504 1502 1501 1500 1500 1499 1499 1498 1498 1498 1498 1498 1497 1497 1497 1497 1499 1502 1505 1506 1506 1506 1505 1506 1506 1507 1508 1509 1510 1510 1511 1511 1513 1513 1513 1514 1513 1514 1515 1516 1518
1503 1502 1500 1499 1498 1497 1497 1496 1496 1496 1496 1496 1495 1495 1495 1495 1495 1496 1497 1499 1501 1501 1501 1501 1501 1502 1503 1504 1505 1506 1507 1508 1508 1509 1510 1511 1511 1512 1512 1513 1513 1515
1501 1500 1498 1497 1496 1496 1495 1494 1494 1494 1493 1493 1493 1492 1492 1492 1493 1494 1494 1495 1496 1497 1498 1499 1499 1500 1500 1501 1502 1502 1503 1504 1504 1505 1505 1506 1508 1509 1510 1510 1510 1511
1500 1498 1497 1496 1495 1494 1493 1492 1491 1491 1491 1491 1490 1490 1489 1490 1491 1491 1491 1491 1492 1494 1495 1496 1497 1499 1499 1500 1500 1500 1500 1500 1500 1500 1501 1503 1504 1506 1507 1507 1507 1507
1500 1497 1496 1495 1493 1492 1490 1490 1489 1488 1488 1488 1488 1487 1487 1488 1488 1489 1489 1489 1490 1492 1493 1494 1496 1497 1498 1499 1499 1499 1498 1497 1497 1497 1498 1499 1500 1501 1503 1503 1504 1504
1499 1497 1495 1493 1492 1490 1489 1488 1487 1486 1486 1486 1485 1485 1486 1486 1486 1486 1487 1489 1490 1490 1491 1492 1493 1494 1495 1496 1496 1496 1496 1495 1496 1496 1496 1496 1496 1498 1499 1501 1502 1502
1499 1496 1494 1492 1490 1489 1487 1486 1485 1484 1484 1483 1483 1484 1484 1484 1484 1484 1486 1488 1488 1488 1487 1487 1487 1488 1490 1491 1491 1492 1493 1492 1494 1495 1495 1494 1494 1495 1498 1499 1500 1500
1497 1495 1492 1491 1489 1488 1486 1485 1484 1483 1483 1482 1482 1482 1482 1481 1481 1481 1482 1483 1484 1484 1483 1483 1483 1484 1487 1488 1488 1489 1489 1488 1489 1491 1491 1492 1492 1493 1494 1494 1495 1495
1496 1494 1491 1489 1488 1487 1485 1484 1482 1481 1481 1481 1481 1480 1479 1479 1479 1478 1478 1479 1479 1479 1479 1480 1481 1482 1484 1485 1486 1487 1487 1487 1487 1487 1487 1489 1491 1491 1491 1491 1491 1490
Wind_Speed
11 13 14 14 14 12 12 13 15 15 15 14 13 13 14 15 15 14 15 15 16 18 20 21 22 23 22 21 22 21 22 21 19 18 22 23 22 21 20 18 17 17
11 13 13 14 15 13 13 14 15 15 14 13 13 12 12 13 15 15 15 15 17 18 19 22 22 22 22 22 22 20 20 21 20 19 21 23 22 22 21 19 18 18
10 11 12 14 15 14 14 15 15 14 14 13 13 13 12 12 14 15 15 15 17 18 19 22 23 23 23 23 23 20 20 21 21 21 21 22 22 22 21 20 19 20
9 10 11 13 14 14 14 15 15 14 14 13 12 12 12 13 14 15 15 16 17 19 21 23 24 24 24 24 24 22 21 22 22 22 21 21 23 23 21 21 21 20
9 10 10 11 12 13 14 14 14 13 13 12 12 12 11 12 14 14 14 15 17 19 21 23 25 25 24 24 25 24 22 24 23 22 21 21 23 24 22 21 21 21
8 8 9 10 11 12 12 12 11 12 13 12 12 12 12 13 13 13 13 14 16 19 21 23 25 26 24 23 25 25 23 25 24 21 21 23 23 23 22 22 22 22
6 7 8 10 10 10 11 11 11 12 12 12 12 13 14 14 13 13 14 13 14 17 20 23 25 26 25 24 25 25 24 24 24 22 23 24 24 23 22 22 22 23
4 5 7 9 10 11 11 11 11 11 12 12 12 13 13 14 14 14 14 14 15 17 18 21 24 25 25 24 24 24 25 26 26 24 23 24 26 25 24 23 23 23
6 7 7 7 9 11 12 12 11 11 12 12 12 13 13 14 15 15 15 15 16 18 19 21 23 25 25 25 24 25 26 27 27 26 25 26 27 27 27 26 24 24
8 9 9 9 10 10 11 11 10 9 12 12 11 13 13 14 16 16 16 15 16 19 21 22 23 23 24 25 26 26 26 26 25 25 26 27 27 27 28 27 27 26
9 9 9 10 11 11 11 11 10 9 10 11 12 13 13 14 16 18 18 17 17 19 22 22 21 22 24 25 26 26 25 25 25 26 25 26 26 26 27 28 28 28
11 11 10 9 11 11 10 10 10 10 10 10 12 14 14 14 17 19 19 19 19 20 21 21 20 22 24 25 25 26 26 26 26 26 27 27 26 27 29 29 29 29
12 12 11 10 11 11 11 11 11 10 10 10 11 14 15 15 17 20 21 21 21 22 22 21 20 21 23 24 25 25 26 28 27 26 27 28 29 29 30 30 29 29
14 13 12 13 13 12 12 13 12 12 11 10 10 13 16 16 16 18 21 22 23 23 22 22 21 22 23 24 25 26 26 28 29 28 27 28 30 31 31 31 30 30
15 14 14 14 14 13 13 13 13 14 12 11 12 13 15 16 16 17 20 22 23 23 22 23 23 23 24 25 26 26 26 27 28 28 27 28 30 31 32 33 33 31
16 15 15 14 13 14 15 15 14 14 13 13 12 11 13 15 16 18 20 20 22 23 22 22 23 24 24 25 26 26 26 27 28 29 28 28 28 29 30 30 31 30
17 16 17 16 16 16 15 15 16 16 15 15 14 13 13 13 15 18 19 20 20 21 22 24 24 23 24 25 26 26 27 28 29 29 30 30 29 29 28 27 27 28
18 17 18 17 17 17 16 15 16 16 17 17 16 17 16 16 16 17 18 19 19 19 22 25 24 23 24 25 25 27 29 30 30 29 31 32 31 31 29 26 26 27
19 19 19 18 18 18 18 17 16 16 17 17 17 17 18 18 18 18 17 17 18 19 22 24 24 24 24 24 24 26 28 30 31 31 31 32 32 32 31 29 29 29
20 20 21 20 20 20 19 19 19 18 18 18 18 18 18 18 19 19 19 18 19 20 21 22 23 24 25 24 24 25 26 28 30 30 30 32 33 32 31 29 29 30
20 22 22 21 22 22 22 22 22 21 20 20 20 19 19 18 18 19 20 20 20 20 20 20 20 22 23 23 23 24 25 26 28 28 28 30 33 33 30 28 28 29
21 24 24 24 22 23 24 24 24 24 23 22 21 21 21 20 18 19 20 20 19 20 20 19 19 20 21 21 22 23 25 27 28 27 26 28 30 32 30 29 30 31
22 23 24 25 25 24 25 26 26 26 25 24 22 22 21 21 20 20 19 18 18 19 18 18 20 22 21 21 21 21 23 26 26 25 25 26 27 29 29 29 31 32
24 23 22 24 26 26 26 26 27 26 25 25 24 23 21 21 22 21 19 18 19 19 18 17 19 21 21 22 21 20 21 23 22 21 23 25 26 27 27 28 28 29
24 24 24 24 24 26 28 28 28 27 26 25 25 24 22 21 22 21 20 18 18 20 19 17 17 18 20 22 22 20 20 20 19 19 22 25 26 25 26 27 26 25
24 24 25 26 25 24 26 29 29 28 27 26 25 23 21 21 21 22 22 19 18 19 19 17 16 18 20 20 20 19 19 19 19 20 21 23 25 24 25 25 25 24
Wind_Direction
259 253 248 243 245 249 252 252 250 247 243 241 240 238 238 238 238 237 233 229 225 221 217 215 214 213 213 210 209 209 212 207 196 211 230 222 214 214 210 214 218 211
259 254 251 249 249 251 257 260 256 252 249 247 244 240 237 234 233 234 233 227 225 224 219 216 214 211 210 210 212 211 211 210 197 200 226 228 220 217 213 216 224 224
255 255 254 254 255 257 262 262 257 255 253 251 248 244 239 232 228 229 232 229 226 223 220 218 214 210 209 209 213 213 209 212 203 197 216 229 225 221 217 216 223 227
256 258 257 257 260 263 265 263 260 259 255 253 249 244 241 237 230 226 228 232 230 223 221 220 214 209 210 210 214 214 207 210 209 201 206 224 229 224 220 220 224 227
254 255 258 261 261 261 265 266 263 261 258 256 254 248 245 242 235 230 229 232 230 225 221 218 212 210 212 213 214 214 209 210 212 207 206 220 229 227 224 223 224 226
255 259 259 263 265 262 265 266 260 257 257 255 252 249 249 246 240 236 236 235 230 226 220 216 213 212 212 215 215 213 212 212 212 212 213 218 226 228 225 224 226 228
261 270 270 272 276 270 268 270 264 259 256 251 248 251 253 251 247 242 242 241 234 227 221 217 216 215 213 214 214 212 212 213 211 213 218 221 225 227 225 225 228 229
287 282 280 280 282 279 277 277 273 269 263 254 248 250 253 251 251 249 245 244 242 235 228 222 218 217 217 216 214 211 211 212 210 211 218 225 229 230 226 225 227 231
329 317 306 297 292 288 287 284 278 270 268 264 253 250 254 252 253 252 245 245 249 244 236 227 220 218 220 220 217 213 213 214 214 215 218 223 230 234 232 226 225 229
324 317 314 311 304 299 297 293 287 273 270 270 259 252 256 257 257 255 248 247 253 250 242 232 224 222 221 222 221 219 218 217 218 221 221 221 226 233 235 232 228 227
327 320 313 309 304 303 302 297 293 284 278 277 267 260 258 257 259 256 249 249 253 251 244 236 229 225 222 223 223 224 223 221 221 224 224 223 227 231 233 235 233 229
327 322 315 307 301 301 303 304 303 295 287 283 276 272 266 260 262 261 253 249 248 246 244 241 235 229 227 227 227 227 228 227 226 226 225 226 229 231 233 235 235 232
326 322 318 310 301 296 297 302 303 292 286 286 286 286 280 269 266 265 259 251 246 245 246 245 239 234 233 233 232 231 231 230 229 228 229 229 230 233 235 236 236 233
325 318 313 307 303 302 299 297 296 289 284 283 288 291 287 276 265 264 263 258 253 251 250 248 243 238 237 236 236 237 235 233 231 231 233 233 234 235 238 242 245 239
324 316 312 307 306 304 297 292 294 294 292 292 295 294 288 282 272 264 263 262 261 259 255 250 246 242 241 239 239 241 241 239 237 237 238 238 239 240 242 248 254 249
323 320 317 313 307 300 295 292 290 290 292 296 298 296 290 287 282 273 266 264 266 266 263 257 252 249 248 246 245 245 244 243 242 241 240 239 240 242 244 248 253 254
317 316 315 312 306 300 298 295 290 289 289 287 286 286 282 281 283 279 274 270 270 270 267 263 261 260 257 254 251 248 245 244 243 242 242 240 240 241 243 246 248 249
314 312 311 310 308 303 297 292 291 292 292 290 289 287 282 280 280 278 276 274 271 270 267 262 261 263 263 260 256 250 247 247 246 245 245 243 242 241 241 243 242 241
316 313 310 308 308 306 299 294 291 290 292 295 294 289 286 286 284 281 278 272 263 263 263 259 255 257 261 261 256 250 247 247 248 249 248 246 244 242 241 242 242 242
315 314 312 309 307 305 301 296 291 288 289 291 292 290 287 287 287 284 282 277 267 261 259 258 259 260 261 261 256 250 248 247 248 249 250 250 248 244 242 243 244 245
311 313 311 308 305 303 302 299 294 291 289 288 289 289 288 287 288 285 284 284 280 271 264 263 265 265 267 268 261 254 250 249 247 248 250 251 250 246 244 243 244 245
310 311 308 306 304 302 302 303 301 298 296 294 291 290 289 289 287 284 285 288 286 282 282 284 282 278 277 275 269 260 253 249 247 249 253 253 249 245 244 244 245 245
312 311 306 304 304 301 300 303 304 304 303 301 299 297 296 294 291 287 289 293 291 287 293 299 296 289 281 274 270 266 261 256 252 252 257 258 252 246 244 244 246 247
310 310 305 303 302 301 300 301 303 305 306 305 306 305 301 299 298 295 292 292 289 286 291 297 291 282 277 274 272 269 266 263 260 258 261 262 258 250 245 243 244 246
308 307 305 303 300 299 301 302 302 303 305 307 309 308 305 301 300 295 288 284 281 280 288 295 289 280 277 278 277 273 270 267 262 258 260 261 259 255 250 247 246 247
306 304 302 302 300 298 298 300 301 300 301 305 307 309 309 307 299 290 282 277 274 274 279 284 285 281 278 277 276 273 273 270 261 255 256 260 260 259 258 256 255 253